Cleveland Burke, OH

11:50 PM EDT on May 25, 2017 (GMT -0400)
Burke Lakefront

Weather History for KBKL - October, 2011

Change the Weather History Date:

Monday, October 24, 2011

  Actual Average Record
Temperature  
Mean Temperature 54 °F -  
Max Temperature 57 °F 57 °F 77 °F (2010)
Min Temperature 51 °F 44 °F 37 °F (2006)
Degree Days  
Heating Degree Days 11    
Growing Degree Days 4 (Base 50)    
Moisture  
Dew Point 45 °F    
Average Humidity 72    
Maximum Humidity 88    
Minimum Humidity 53    
Precipitation  
Precipitation 0.03 in - - ()
Sea Level Pressure  
Sea Level Pressure 29.98 in    
Wind  
Wind Speed 13 mph (SW)    
Max Wind Speed 21 mph    
Max Gust Speed 29 mph    
Visibility 10 miles    
Events Rain    
Averages and records for this station are not official NWS values.
T = Trace of Precipitation, MM = Missing Value Source: NWS Daily Summary

Daily Weather History Graph

Daily Weather History Graph

Search for Another Location

Airport or City:

Trip Planner

Search our weather history database for the weather conditions in past years. The results will help you decide how hot, cold, wet, or windy it might be!

Date:

Astronomy

Oct. 24, 2011 Rise Set
Actual Time 7:48 AM EDT 6:32 PM EDT
Civil Twilight 7:20 AM EDT 7:00 PM EDT
Nautical Twilight 6:47 AM EDT 7:33 PM EDT
Astronomical Twilight 6:15 AM EDT 8:05 PM EDT
Moon 5:04 AM EDT (10/24) 4:57 PM EDT (10/24)
Length of Visible Light 11h 40m
Length of Day
10h 43m
Waning Crescent, 7% of the Moon is Illuminated
Oct 24
Waning Crescent
Oct 26
New
Nov 2
First Quarter
Nov 10
Full
Nov 18
Last Quarter

Hourly Weather History & Observations

Time (EDT) Temp. Dew Point Humidity Pressure Visibility Wind Dir Wind Speed Gust Speed Precip Events Conditions
12:53 AM 53.6 °F 39.2 °F 58% 29.96 in 10.0 mi South 10.4 mph - N/A   Clear
1:53 AM 55.0 °F 39.9 °F 57% 29.96 in 10.0 mi South 9.2 mph - N/A   Partly Cloudy
2:53 AM 54.0 °F 41.0 °F 62% 29.95 in 10.0 mi South 11.5 mph - N/A   Partly Cloudy
3:53 AM 54.0 °F 42.1 °F 64% 29.92 in 10.0 mi South 10.4 mph - N/A   Mostly Cloudy
4:53 AM 54.0 °F 42.1 °F 64% 29.90 in 10.0 mi South 13.8 mph - N/A   Overcast
5:53 AM 55.0 °F 44.1 °F 67% 29.88 in 10.0 mi South 13.8 mph 19.6 mph N/A   Overcast
6:49 AM 55.4 °F 46.4 °F 72% 29.93 in 10.0 mi WSW 19.6 mph 24.2 mph N/A   Overcast
6:53 AM 55.0 °F 46.0 °F 72% 29.93 in 10.0 mi WSW 18.4 mph 26.5 mph 0.00 in Rain Light Rain
7:18 AM 53.6 °F 50.0 °F 88% 29.94 in 10.0 mi West 17.3 mph - 0.00 in   Overcast
7:53 AM 54.0 °F 48.0 °F 80% 29.94 in 10.0 mi West 13.8 mph - 0.00 in   Overcast
8:53 AM 52.0 °F 48.0 °F 86% 29.94 in 6.0 mi South 8.1 mph - 0.02 in Rain Light Rain
9:53 AM 53.1 °F 48.0 °F 83% 29.94 in 10.0 mi South 12.7 mph - 0.01 in   Overcast
10:53 AM 54.0 °F 48.9 °F 83% 29.95 in 10.0 mi South 11.5 mph - 0.00 in   Overcast
11:10 AM 53.6 °F 48.2 °F 82% 29.95 in 10.0 mi SSW 13.8 mph 20.7 mph N/A   Overcast
11:43 AM 55.4 °F 48.2 °F 77% 29.96 in 10.0 mi SW 10.4 mph - N/A   Overcast
11:53 AM 55.0 °F 48.9 °F 80% 29.96 in 10.0 mi SW 11.5 mph - N/A   Overcast
12:16 PM 55.4 °F 50.0 °F 82% 29.97 in 10.0 mi SW 11.5 mph - N/A   Overcast
12:53 PM 55.0 °F 48.9 °F 80% 29.97 in 10.0 mi SSW 11.5 mph - N/A   Overcast
1:53 PM 55.9 °F 51.1 °F 84% 29.96 in 10.0 mi West 18.4 mph 24.2 mph N/A   Overcast
2:28 PM 57.2 °F 51.8 °F 82% 29.97 in 10.0 mi West 16.1 mph - N/A   Scattered Clouds
2:53 PM 57.2 °F 50.0 °F 77% 29.97 in 10.0 mi West 17.3 mph - N/A   Partly Cloudy
3:53 PM 57.0 °F 48.0 °F 72% 29.99 in 10.0 mi West 15.0 mph - N/A   Partly Cloudy
4:53 PM 57.0 °F 46.0 °F 67% 30.00 in 10.0 mi West 12.7 mph - N/A   Clear
5:53 PM 55.0 °F 43.0 °F 64% 30.03 in 10.0 mi WSW 12.7 mph - N/A   Clear
6:53 PM 51.1 °F 39.9 °F 66% 30.04 in 10.0 mi SW 8.1 mph - N/A   Clear
7:53 PM 54.0 °F 37.0 °F 53% 30.04 in 10.0 mi SW 13.8 mph - N/A   Clear
8:53 PM 51.1 °F 39.0 °F 63% 30.07 in 10.0 mi WSW 9.2 mph - N/A   Clear
9:53 PM 53.6 °F 42.8 °F 67% 30.09 in 10.0 mi WSW 13.8 mph - N/A   Clear
10:53 PM 55.9 °F 42.1 °F 60% 30.12 in 10.0 mi WNW 20.7 mph 28.8 mph N/A   Clear
11:53 PM 55.0 °F 44.1 °F 67% 30.12 in 10.0 mi WNW 12.7 mph - N/A   Clear